Location: F?ge?el
(45.8833°N, 22.5833°E)
Time: 11:45:33
(UTC+00:00)

ISS - Pass Details

Date: 17 November 2025
Orbit: 416 x 420 km, 51.6° (Epoch: 10 December)

Event Time Altitude Azimuth Distance (km) Brightness Sun altitude
Rises 15:33:31 0° 229° (SW) 2,361 1.6 -6.8°
Reaches altitude 10° 15:35:38 10° 226° (SW) 1,498 0.3 -7.1°
Maximum altitude 15:38:56 57° 147° (SSE) 500 -3.5 -7.7°
Enters shadow 15:42:05 11° 68° (ENE) 1,435 -1.7 -8.2°
